Location: Automata Internet Observatory
(34.5060°N, 117.9090°W)
Time: 07:46:46
(UTC-08:00)

OTV 5 (USA 277) - Visible Passes

Search period start: 20 February 2018 00:00
Search period end: 02 March 2018 00:00
Orbit: 404 x 417 km, 43.0° (Epoch: 07 September)

Date Brightness Start Highest point End Pass type
(mag) Time Alt. Az. Time Alt. Az. Time Alt. Az.
20 Feb ? 05:28:32 20° WSW 05:30:37 83° SSE 05:33:55 10° ENE visible
21 Feb ? 04:40:16 41° ESE 04:40:16 41° ESE 04:42:47 10° ENE visible
22 Feb ? 05:24:37 28° WNW 05:25:51 40° NNW 05:28:59 10° NE visible
23 Feb ? 04:36:06 31° NE 04:36:06 31° NE 04:38:00 10° NE visible
24 Feb ? 05:20:15 20° NW 05:21:15 24° NNW 05:24:00 10° NE visible
25 Feb ? 04:31:35 20° NNE 04:31:35 20° NNE 04:33:01 10° NE visible
26 Feb ? 05:15:37 16° NNW 05:16:46 18° N 05:19:10 10° NE visible
27 Feb ? 04:26:53 16° NNE 04:26:53 16° NNE 04:28:04 10° NE visible
28 Feb ? 05:10:53 15° NNW 05:12:19 18° N 05:14:43 10° NE visible
01 Mar ? 04:22:09 16° NNE 04:22:09 16° NNE 04:23:25 10° NE visible
01 Mar ? 05:56:04 10° NW 05:59:01 29° NNE 06:01:57 10° E visible
